This demonstration page uses our WeatherBlox Daily Observations layout. Learn more.

Left ArrowRight Arrow

Hourly Observations for September 11, 2021

Temp ( °F °C ) Dew Point ( °F °C ) Humidity (%) Winds ( mph kmh ) Pressure ( in mb ) Visibility ( mi km ) Precip ( " mm )
12:52 am 00:52 Clear 68 20 67 19.4 96 96 Calm 29.85 1011 10 16 0.00 0.00
1:52 am 01:52 Clear 68 20 66 18.9 93 93 Calm 29.85 1011 10 16 0.00 0.00
2:52 am 02:52 Clear 69 20.6 66 18.9 90 90 ESE 5 7 29.85 1011 10 16 0.00 0.00
3:52 am 03:52 Clear 69 20.6 66 18.9 90 90 SE 8 13 29.84 1010 10 16 0.00 0.00
4:52 am 04:52 Clear 69 20.6 66 18.9 90 90 SSE 3 6 29.83 1010 10 16 0.00 0.00
5:52 am 05:52 Clear 70 21.1 67 19.4 90 90 S 9 15 29.83 1010 10 16 0.00 0.00
6:52 am 06:52 Clear 69 20.6 66 18.9 90 90 S 8 13 29.84 1011 7 11 0.00 0.00
7:52 am 07:52 Mostly Sunny 69 20.6 66 18.9 90 90 SSE 8 13 29.84 1011 7 11 0.00 0.00
8:52 am 08:52 Mostly Sunny 72 22.2 67 19.4 84 84 S 13 20 29.84 1011 8 13 0.00 0.00
9:52 am 09:52 Mostly Sunny 75 23.9 67 19.4 76 76 S 9 15 29.84 1011 10 16 0.00 0.00
10:52 am 10:52 Mostly Sunny 79 26.1 68 20 69 69 S 9 15 29.84 1010 10 16 0.00 0.00
11:52 am 11:52 Mostly Sunny 84 28.9 68 20 59 59 S 13 20 29.83 1010 10 16 0.00 0.00
12:52 pm 12:52 Mostly Sunny 86 30 68 20 55 55 S 14 22 29.81 1010 10 16 0.00 0.00
1:52 pm 13:52 Mostly Sunny 88 31.1 68 20 52 52 S 12 19 29.80 1009 10 16 0.00 0.00
2:52 pm 14:52 Mostly Sunny 90 32.2 69 20.6 50 50 S 14 22 29.78 1008 10 16 0.00 0.00
3:52 pm 15:52 Mostly Cloudy 91 32.8 68 20 47 47 S 16 26 29.75 1008 10 16 0.00 0.00
4:52 pm 16:52 Mostly Cloudy 91 32.8 67 19.4 45 45 S 13 20 29.75 1007 10 16 0.00 0.00
5:52 pm 17:52 Cloudy 90 32.2 67 19.4 47 47 S 8 13 29.76 1008 10 16 0.00 0.00
6:52 pm 18:52 Mostly Cloudy 88 31.1 69 20.6 54 54 S 8 13 29.77 1008 10 16 0.00 0.00
7:52 pm 19:52 Mostly Cloudy 82 27.8 69 20.6 65 65 SSE 12 19 29.77 1008 7 11 0.00 0.00
8:52 pm 20:52 Mostly Cloudy 83 28.3 69 20.6 63 63 S 12 19 29.78 1009 7 11 0.00 0.00
9:52 pm 21:52 Partly Cloudy 78 25.6 69 20.6 74 74 SSE 9 15 29.81 1009 7 11 0.00 0.00
10:52 pm 22:52 Partly Cloudy 76 24.4 69 20.6 79 79 SSE 9 15 29.81 1010 7 11 0.00 0.00
11:52 pm 23:52 Partly Cloudy 75 23.9 68 20 79 79 SSE 9 15 29.81 1010 7 11 0.00 0.00

Powered by AerisWeather